Location: Derby
(52.9213°N, 1.4761°W)
Time: 07:20:17
(UTC+01:00)

Tiros 1 despin weight - Visible Passes

Search period start: 24 May 2025 00:00
Search period end: 03 June 2025 00:00
Orbit: 562 x 602 km, 48.2° (Epoch: 23 May)

Date Brightness Start Highest point End Pass type
(mag) Time Alt. Az. Time Alt. Az. Time Alt. Az.
24 May ? 01:33:11 11° SE 01:33:11 11° SE 01:33:53 10° ESE visible
24 May ? 03:09:27 17° SSW 03:12:10 31° SSE 03:16:06 10° E visible
25 May ? 01:37:22 16° SE 01:37:22 16° SE 01:39:41 10° ESE visible
25 May ? 03:13:39 15° SW 03:16:54 37° SSE 03:21:00 10° E visible
26 May ? 01:41:29 21° SSE 01:41:34 21° SSE 01:44:56 10° E visible
26 May ? 03:17:45 11° WSW 03:21:40 42° S 03:25:52 10° E visible
27 May ? 01:45:32 26° S 01:46:13 27° SSE 01:49:58 10° E visible
27 May ? 03:22:14 10° WSW 03:26:26 45° S 03:30:41 10° ESE visible
28 May ? 01:49:29 26° SSW 01:50:55 33° SSE 01:54:54 10° E visible
28 May ? 03:27:00 10° WSW 03:31:13 46° S 03:35:28 10° ESE visible
29 May ? 00:17:01 16° SE 00:17:01 16° SE 00:18:38 10° ESE visible
29 May ? 01:53:16 21° SW 01:55:39 39° SSE 01:59:46 10° E visible
29 May ? 03:31:48 10° WSW 03:35:59 44° S 03:40:13 10° ESE visible
30 May ? 00:20:33 23° SE 00:20:33 23° SE 00:23:45 10° E visible
30 May ? 01:56:45 13° WSW 02:00:23 43° S 02:04:35 10° E visible
30 May ? 03:36:37 10° W 03:40:44 40° SSW 03:44:54 10° ESE visible
31 May ? 00:23:19 23° SSW 00:24:54 29° SSE 00:28:44 10° E visible
31 May ? 02:00:59 10° WSW 02:05:09 45° S 02:09:23 10° ESE visible
31 May ? 03:41:28 10° W 03:45:28 34° SSW 03:49:29 10° SE visible
31 May ? 22:47:13 10° S 22:49:41 15° SE 22:52:10 10° ESE visible
01 Jun ? 00:25:38 10° SW 00:29:36 35° SSE 00:33:37 10° E visible
01 Jun ? 02:05:44 10° WSW 02:09:54 45° S 02:14:08 10° ESE visible
01 Jun ? 03:46:22 10° W 03:50:09 28° SSW 03:53:58 10° SE visible
01 Jun ? 22:51:05 10° SSW 22:54:15 20° SSE 22:57:27 10° ESE visible
02 Jun ? 00:30:15 10° WSW 00:34:19 41° S 00:38:26 10° E visible
02 Jun ? 02:10:31 10° W 02:14:39 42° S 02:18:50 10° ESE visible
02 Jun ? 03:51:21 10° W 03:54:48 23° SSW 03:58:16 10° SSE visible
02 Jun ? 22:55:17 10° SSW 22:58:52 26° SSE 23:02:29 10° E visible
